Date String (YYYY-MM-DD hh:mm:ss) UTC,Instrument flags,absolute air pressure of the measurement (hPa),sample flow rate (lpm),inlet stack bypass flow (lpm),air temperature of the measurement (°C),ambient temperature measured by the external sensor (°C),aerosol sample conditioner tube jacket temperature (°C),OPC LED temperature (°C),internal box temperature (°C),relative humidity of the measurement (%),span deviation,mass concentration of particles derived from Lorenz-Mie calculation of OPC scattering (μg/m³),mass concentration of particles derived from Lorenz-Mie calculation of OPC scattering (μg/m³),mass concentration of particles derived from Lorenz-Mie calculation of OPC scattering (μg/m³)
DateTimeUTC,F1_M11,P_M11,Q1_M11,Q2_M11,T1_M11,T2_M11,T3_M11,T4_M11,T5_M11,U1_M11,ZSPAN_M11,X0_M11,X2_M11,X1_M11
2023-08-16 23:00:00,SystemResetWarning,0831.2,5.00,000.00,028.4,023.9,000.0,036.3,029.0,27.6,0000.0,0009.57,0004.69,0003.93
2023-08-16 23:01:00,SystemResetWarning,0831.3,5.00,000.00,028.3,024.4,000.0,036.3,029.0,27.4,0000.0,0009.95,0004.72,0003.95
2023-08-16 23:02:00,SystemResetWarning,0831.3,5.00,000.00,028.3,024.9,000.0,036.4,029.2,27.5,0000.0,0010.41,0004.75,0003.97
2023-08-16 23:03:00,SystemResetWarning,0831.3,5.00,000.00,028.3,025.3,000.0,036.4,029.4,27.2,0000.0,0010.79,0004.72,0003.98
2023-08-16 23:04:00,SystemResetWarning,0831.3,4.98,000.00,028.4,025.2,000.0,036.4,029.4,27.2,0000.0,0010.79,0004.72,0003.98
2023-08-16 23:05:00,SystemResetWarning,0831.3,5.00,000.00,028.3,024.1,000.0,036.3,029.2,27.7,0000.0,0010.41,0004.70,0003.98
2023-08-16 23:06:00,SystemResetWarning,0831.2,5.01,000.00,028.3,023.7,000.0,036.2,029.1,28.0,0000.0,0010.29,0004.75,0004.00
2023-08-16 23:07:00,SystemResetWarning,0831.2,4.99,000.00,028.2,024.1,000.0,036.2,029.0,27.9,0000.0,0010.44,0004.76,0004.01
2023-08-16 23:08:00,SystemResetWarning,0831.2,5.01,000.00,028.1,024.5,000.0,036.2,029.0,28.2,0000.0,0011.01,0004.81,0004.02
2023-08-16 23:09:00,SystemResetWarning,0831.2,5.00,000.00,028.1,025.0,000.0,036.3,029.2,27.9,0000.0,0011.01,0004.81,0004.02
2023-08-16 23:10:00,SystemResetWarning,0831.1,5.00,000.00,028.2,025.5,000.0,036.3,029.4,28.2,0000.0,0011.02,0004.85,0004.04
2023-08-16 23:11:00,SystemResetWarning,0831.1,4.98,000.00,028.2,025.2,000.0,036.2,029.3,28.2,0000.0,0011.20,0004.90,0004.06
2023-08-16 23:12:00,SystemResetWarning,0831.1,5.00,000.00,028.1,024.0,000.0,036.1,029.2,27.7,0000.0,0010.82,0004.89,0004.05
2023-08-16 23:13:00,SystemResetWarning,0831.2,5.01,000.00,028.1,023.8,000.0,036.1,029.1,26.6,0000.0,0010.21,0004.88,0004.06
2023-08-16 23:14:00,SystemResetWarning,0831.2,5.01,000.00,028.0,024.1,000.0,036.1,029.0,26.0,0000.0,0009.67,0004.85,0004.05
2023-08-16 23:15:00,SystemResetWarning,0831.2,5.00,000.00,028.0,024.6,000.0,036.1,029.1,27.3,0000.0,0009.42,0004.82,0004.05
2023-08-16 23:16:00,SystemResetWarning,0831.2,5.00,000.00,028.0,025.1,000.0,036.1,029.2,27.3,0000.0,0009.60,0004.79,0004.04
2023-08-16 23:17:00,SystemResetWarning,0831.2,4.99,000.00,028.0,025.5,000.0,036.2,029.4,26.4,0000.0,0009.92,0004.76,0004.03
2023-08-16 23:18:00,SystemResetWarning,0831.1,4.98,000.00,028.1,025.2,000.0,036.1,029.3,27.1,0000.0,0010.09,0004.76,0004.03
2023-08-16 23:19:00,SystemResetWarning,0831.1,5.00,000.00,028.0,023.9,000.0,036.0,029.2,27.7,0000.0,0009.81,0004.73,0004.03
2023-08-16 23:20:00,SystemResetWarning,0831.2,5.01,000.00,027.9,023.7,000.0,036.0,029.1,27.4,0000.0,0009.63,0004.68,0004.02
2023-08-16 23:21:00,SystemResetWarning,0831.2,5.01,000.00,027.9,024.1,000.0,036.0,029.0,27.9,0000.0,0009.73,0004.66,0004.00
2023-08-16 23:22:00,SystemResetWarning,0831.1,4.99,000.00,027.8,024.6,000.0,036.0,029.2,28.1,0000.0,0010.33,0004.61,0003.98
2023-08-16 23:23:00,SystemResetWarning,0831.2,5.00,000.00,027.9,025.1,000.0,036.1,029.3,28.2,0000.0,0010.51,0004.61,0003.97
2023-08-16 23:24:00,SystemResetWarning,0831.2,5.00,000.00,027.9,025.6,000.0,036.1,029.4,28.7,0000.0,0010.64,0004.59,0003.94
2023-08-16 23:25:00,SystemResetWarning,0831.2,5.00,000.00,028.0,025.7,000.0,036.1,029.5,29.7,0000.0,0010.75,0004.62,0003.93
2023-08-16 23:26:00,SystemResetWarning,0831.2,4.99,000.00,028.0,024.7,000.0,036.0,029.3,30.4,0000.0,0010.71,0004.61,0003.92
2023-08-16 23:27:00,SystemResetWarning,0831.2,5.00,000.00,027.9,023.9,000.0,035.9,029.1,31.1,0000.0,0010.73,0004.60,0003.89
2023-08-16 23:28:00,SystemResetWarning,0831.2,5.01,000.00,027.8,024.1,000.0,035.9,029.0,31.0,0000.0,0010.82,0004.54,0003.88
2023-08-16 23:29:00,SystemResetWarning,0831.2,5.00,000.00,027.8,024.4,000.0,036.0,029.0,31.4,0000.0,0011.05,0004.48,0003.86
2023-08-16 23:30:00,SystemResetWarning,0831.2,5.00,000.00,027.8,024.9,000.0,036.0,029.1,31.6,0000.0,0011.06,0004.46,0003.85
2023-08-16 23:31:00,SystemResetWarning,0831.3,5.00,000.00,027.8,025.3,000.0,036.0,029.3,31.6,0000.0,0011.31,0004.47,0003.84
2023-08-16 23:32:00,SystemResetWarning,0831.3,5.01,000.00,027.9,025.8,000.0,036.0,029.4,31.6,0000.0,0011.17,0004.45,0003.82
2023-08-16 23:33:00,SystemResetWarning,0831.3,4.98,000.00,027.9,025.2,000.0,036.0,029.3,31.3,0000.0,0010.44,0004.42,0003.80
2023-08-16 23:34:00,SystemResetWarning,0831.3,5.00,000.00,027.8,024.0,000.0,035.9,029.0,31.5,0000.0,0010.14,0004.37,0003.79
2023-08-16 23:35:00,SystemResetWarning,0831.3,5.01,000.00,027.7,023.7,000.0,035.8,028.9,31.8,0000.0,0010.02,0004.36,0003.80
2023-08-16 23:36:00,SystemResetWarning,0831.3,5.01,000.00,027.7,024.0,000.0,035.8,028.8,32.2,0000.0,0010.03,0004.33,0003.79
2023-08-16 23:37:00,SystemResetWarning,0831.3,4.99,000.00,027.6,024.5,000.0,035.9,028.9,32.1,0000.0,0010.04,0004.32,0003.78
2023-08-16 23:38:00,SystemResetWarning,0831.3,5.00,000.00,027.6,024.9,000.0,035.9,029.1,32.1,0000.0,0010.35,0004.31,0003.78
2023-08-16 23:39:00,SystemResetWarning,0831.3,5.01,000.00,027.7,025.4,000.0,035.9,029.2,32.3,0000.0,0009.45,0004.30,0003.78
2023-08-16 23:40:00,SystemResetWarning,0831.4,4.98,000.00,027.7,025.5,000.0,035.9,029.3,31.9,0000.0,0008.93,0004.32,0003.78
2023-08-16 23:41:00,SystemResetWarning,0831.3,5.00,000.00,027.7,024.3,000.0,035.8,029.0,31.7,0000.0,0008.44,0004.32,0003.77
2023-08-16 23:42:00,SystemResetWarning,0831.3,5.01,000.00,027.6,023.6,000.0,035.7,028.8,31.7,0000.0,0008.09,0004.26,0003.76
2023-08-16 23:43:00,SystemResetWarning,0831.3,5.01,000.00,027.5,023.8,000.0,035.7,028.8,31.3,0000.0,0007.88,0004.20,0003.76
2023-08-16 23:44:00,SystemResetWarning,0831.3,4.99,000.00,027.5,024.1,000.0,035.7,028.7,31.1,0000.0,0008.58,0004.21,0003.76
2023-08-16 23:45:00,SystemResetWarning,0831.3,4.99,000.00,027.5,024.6,000.0,035.8,028.9,30.8,0000.0,0008.75,0004.21,0003.75
2023-08-16 23:46:00,SystemResetWarning,0831.3,5.00,000.00,027.5,025.0,000.0,035.8,029.0,30.1,0000.0,0009.26,0004.18,0003.74
2023-08-16 23:47:00,SystemResetWarning,0831.3,5.01,000.00,027.6,025.5,000.0,035.8,029.2,28.7,0000.0,0009.40,0004.19,0003.74
2023-08-16 23:48:00,SystemResetWarning,0831.4,5.00,000.00,027.6,025.6,000.0,035.8,029.2,24.8,0000.0,0009.86,0004.19,0003.74
2023-08-16 23:49:00,SystemResetWarning,0831.3,4.98,000.00,027.6,024.3,000.0,035.7,028.9,24.1,0000.0,0009.50,0004.19,0003.74
2023-08-16 23:50:00,SystemResetWarning,0831.3,5.01,000.00,027.5,023.5,000.0,035.6,028.8,23.2,0000.0,0009.44,0004.18,0003.74
2023-08-16 23:51:00,SystemResetWarning,0831.2,5.02,000.00,027.4,023.7,000.0,035.6,028.7,23.7,0000.0,0009.96,0004.18,0003.74
2023-08-16 23:52:00,SystemResetWarning,0831.2,4.99,000.00,027.4,024.1,000.0,035.6,028.7,23.7,0000.0,0010.25,0004.18,0003.75
2023-08-16 23:53:00,SystemResetWarning,0831.2,4.99,000.00,027.4,024.6,000.0,035.7,028.8,22.5,0000.0,0010.33,0004.20,0003.75
2023-08-16 23:54:00,SystemResetWarning,0831.3,5.00,000.00,027.4,025.1,000.0,035.7,029.0,21.5,0000.0,0010.37,0004.23,0003.76
2023-08-16 23:55:00,SystemResetWarning,0831.3,5.01,000.00,027.5,025.5,000.0,035.7,029.1,21.5,0000.0,0010.05,0004.26,0003.77
2023-08-16 23:56:00,SystemResetWarning,0831.3,5.01,000.00,027.5,025.9,000.0,035.7,029.3,21.2,0000.0,0009.86,0004.30,0003.80
2023-08-16 23:57:00,SystemResetWarning,0831.2,4.98,000.00,027.6,025.2,000.0,035.7,029.2,20.8,0000.0,0009.57,0004.35,0003.82
2023-08-16 23:58:00,SystemResetWarning,0831.3,5.00,000.00,027.5,023.9,000.0,035.6,028.9,21.6,0000.0,0009.23,0004.35,0003.82
2023-08-16 23:59:00,SystemResetWarning,0831.3,5.01,000.00,027.4,023.8,000.0,035.6,028.8,21.5,0000.0,0009.18,0004.37,0003.83
